Flag for U.S.A. Weather past 2 weeks in Petersburg, Indiana, U.S.A.

Now
39 °F

Clear.


Feels Like: 35 °F
Forecast: 38 / 59 °F
Wind: 6 mph from Northeast

Location: Huntingburg Airport

Current Time: Oct 22, 2014 at 5:58:44 AM

Latest Report: Oct 22, 2014 at 5:35 AM


Visibility: 8 mi

Pressure: 30.24 "Hg

Humidity: 93%

Dew point: 37 °F

Location of PetersburgLocation

Historic Weather in Petersburg — Graph

°F

Petersburg temperature yesterday

Maximum temperature yesterday: 63 °F (at 4:35 PM)
Minimum temperature yesterday: 45 °F (at 7:55 AM)
Average temperature yesterday: 53 °F

Past Weeks' High & Low Weather Summary

 TemperatureHumidityPressure
High73 °F (Oct 17, 3:55 PM)94% (Oct 15, 1:35 PM)30.28 "Hg (Oct 15, 1:35 PM)
Low37 °F (Oct 19, 7:15 AM)41% (Oct 17, 3:55 PM)29.73 "Hg (Oct 15, 2:35 PM)
Average54 °F74%29.99 "Hg
* Reported Oct 15 12:15 PM — Oct 22 4:55 AM, Petersburg, Weather by CustomWeather, © 2014

Note: Actual official high and low records may vary slightly from our data, if they occured in-between our weather recording intervals... More about our weather records

Advertising

Petersburg weather history for previous 24 hours

 ConditionsComfort  
Time TempWeatherWind HumidityBarometerVisibility
4:55 AM
Oct 22
41 °FClear.5 mph87%30.23 "Hg10 mi
4:35 AM39 °FClear.5 mph93%30.23 "Hg10 mi
4:15 AM43 °FClear.3 mph81%30.22 "Hg10 mi
3:55 AM41 °FClear.5 mph87%30.22 "Hg10 mi
3:35 AM41 °FClear.5 mph87%30.22 "Hg10 mi
3:15 AM43 °FClear.5 mph81%30.21 "Hg10 mi
2:55 AM43 °FClear.5 mph81%30.21 "Hg10 mi
2:35 AM43 °FClear.5 mph81%30.20 "Hg10 mi
2:15 AM43 °FClear.5 mph81%30.20 "Hg10 mi
1:55 AM43 °FClear.5 mph81%30.20 "Hg10 mi
1:35 AM43 °FClear.7 mph81%30.20 "Hg10 mi
1:15 AM43 °FClear.6 mph81%30.20 "Hg10 mi
12:55 AM43 °FClear.6 mph81%30.20 "Hg10 mi
12:35 AM45 °FClear.6 mph76%30.19 "Hg10 mi
12:15 AM46 °FClear.5 mph71%30.19 "Hg10 mi
11:55 PM
Oct 21
46 °FClear.3 mph76%30.19 "Hg10 mi
11:35 PM46 °FClear.3 mph76%30.19 "Hg10 mi
11:15 PM46 °FClear.3 mph71%30.19 "Hg10 mi
10:55 PM48 °FClear.3 mph71%30.18 "Hg10 mi
10:35 PM48 °FClear.6 mph66%30.18 "Hg10 mi
10:15 PM46 °FClear.5 mph71%30.17 "Hg10 mi
9:55 PM48 °FClear.5 mph71%30.17 "Hg10 mi
9:35 PM50 °FClear.5 mph62%30.16 "Hg10 mi
8:55 PM52 °FClear.6 mph58%30.15 "Hg10 mi
8:35 PM52 °FPassing clouds.5 mph58%30.15 "Hg10 mi
8:15 PM52 °FPassing clouds.6 mph62%30.14 "Hg10 mi
7:55 PM54 °FPassing clouds.6 mph54%30.13 "Hg10 mi
7:35 PM54 °FPartly sunny.7 mph58%30.14 "Hg10 mi
7:15 PM54 °FPassing clouds.7 mph54%30.13 "Hg10 mi
6:55 PM55 °FSunny.8 mph55%30.13 "Hg10 mi
6:35 PM55 °FSunny.8 mph59%30.12 "Hg10 mi
6:15 PM57 °FPassing clouds.8 mph51%30.12 "Hg9 mi
5:55 PM59 °FPassing clouds.15 mph51%30.11 "Hg10 mi
5:35 PM59 °FPassing clouds.10 mph48%30.11 "Hg10 mi
5:15 PM61 °FPassing clouds.12 mph52%30.11 "Hg10 mi
4:55 PM57 °FScattered clouds.7 mph55%30.10 "Hg10 mi
4:35 PM63 °FPartly sunny.13 mph49%30.10 "Hg10 mi
3:55 PM61 °FPartly sunny.10 mph52%30.09 "Hg10 mi
3:35 PM61 °FMostly cloudy.9 mph52%30.09 "Hg10 mi
3:15 PM59 °FPartly sunny.12 mph59%30.09 "Hg10 mi
2:55 PM61 °FPartly sunny.8 mph55%30.09 "Hg10 mi
2:35 PM59 °FBroken clouds.13 mph59%30.09 "Hg10 mi
2:15 PM61 °FPartly sunny.13 mph55%30.09 "Hg10 mi
1:55 PM59 °FMostly cloudy.8 mph59%30.10 "Hg10 mi
1:35 PM59 °FMostly cloudy.9 mph59%30.11 "Hg10 mi
1:15 PM61 °FBroken clouds.13 mph55%30.11 "Hg10 mi
12:55 PM61 °FSunny.12 mph55%30.10 "Hg10 mi
12:35 PM59 °FPartly sunny.13 mph59%30.10 "Hg10 mi
12:15 PM59 °FPartly sunny.14 mph59%30.10 "Hg10 mi
11:55 AM59 °FSunny.13 mph59%30.10 "Hg10 mi
11:35 AM59 °FSunny.10 mph63%30.10 "Hg10 mi
11:15 AM57 °FPassing clouds.8 mph67%30.09 "Hg10 mi
10:55 AM55 °FPartly sunny.8 mph72%30.09 "Hg10 mi
10:35 AM54 °FOvercast.9 mph77%30.10 "Hg10 mi
10:15 AM54 °FOvercast.7 mph77%30.09 "Hg10 mi
9:55 AM52 °FOvercast.7 mph82%30.09 "Hg10 mi
9:35 AM48 °FOvercast.7 mph87%30.09 "Hg10 mi
9:15 AM48 °FOvercast.7 mph87%30.08 "Hg10 mi
8:55 AM48 °FOvercast.6 mph82%30.07 "Hg10 mi
8:35 AM46 °FOvercast.6 mph87%30.07 "Hg10 mi
7:55 AM45 °FClear.6 mph81%30.05 "Hg10 mi
7:35 AM46 °FClear.6 mph82%30.04 "Hg10 mi
7:15 AM46 °FPassing clouds.6 mph82%30.04 "Hg10 mi
6:55 AM46 °FOvercast.5 mph82%30.03 "Hg10 mi
6:35 AM46 °FOvercast.5 mph87%30.03 "Hg10 mi
6:15 AM46 °FOvercast.No wind82%30.02 "Hg10 mi
5:55 AM46 °FOvercast.5 mph82%30.02 "Hg10 mi
5:35 AM46 °FPassing clouds.3 mph82%30.01 "Hg10 mi
5:15 AM46 °FClear.5 mph82%30.01 "Hg10 mi
Weather by CustomWeather, © 2014

See weather overviewHow to use our weather pages